When you browse on this site, cookies collect data to enhance your experience and personalize the content and advertising you see.
Visit our Privacy Policy to learn more. By continuing to use the site, you agree to this use of cookies and data.
  • In United Kingdom
  • List of Countries
  • For 7 days
  • Water Temperature
  • Satellite Maps
  • Weather Map
  • Weather Widgets
  • user-avatar
    Login

    Hourly Weather Jalalabad

    Today, 20 March, Wednesday

    Time Temperature Precipitation Wind Pressure Humidity
    00:00 +14°C° 0 mm 1 mps 709 mmHg 65%
    01:00 +14°C° 0 mm 1 mps 709 mmHg 64%
    02:00 +13°C° 0 mm 1 mps 709 mmHg 62%
    03:00 +13°C° 0 mm 1 mps 709 mmHg 59%
    04:00 +13°C° 0 mm 1 mps 709 mmHg 55%
    05:00 +12°C° 0 mm 1 mps 709 mmHg 52%
    06:00 +13°C° 0 mm 1 mps 709 mmHg 47%
    07:00 +13°C° 0 mm 2 mps 709 mmHg 41%
    08:00 +14°C° 0 mm 2 mps 709 mmHg 36%
    09:00 +15°C° 0 mm 2 mps 709 mmHg 32%
    10:00 +16°C° 0 mm 2 mps 709 mmHg 28%
    11:00 +17°C° 0 mm 2 mps 709 mmHg 25%
    12:00 +18°C° 0 mm 2 mps 709 mmHg 25%
    13:00 +19°C° 0 mm 2 mps 709 mmHg 26%
    14:00 +19°C° 0 mm 2 mps 709 mmHg 26%
    15:00 +19°C° 0 mm 2 mps 709 mmHg 26%
    16:00 +19°C° 0 mm 2 mps 709 mmHg 26%
    17:00 +20°C° 0 mm 2 mps 709 mmHg 26%
    18:00 +20°C° 0 mm 1 mps 710 mmHg 28%
    19:00 +19°C° 0 mm 1 mps 710 mmHg 31%
    20:00 +18°C° 0 mm 1 mps 711 mmHg 34%
    21:00 +18°C° 0 mm 1 mps 711 mmHg 34%
    22:00 +16°C° 0 mm 1 mps 711 mmHg 34%
    23:00 +16°C° 0 mm 2 mps 712 mmHg 34%

    Tomorrow, 21 March, Thursday

    Time Temperature Precipitation Wind Pressure Humidity
    00:00 +15°C° 0 mm 2 mps 712 mmHg 34%
    01:00 +14°C° 0 mm 2 mps 711 mmHg 34%
    02:00 +14°C° 0 mm 2 mps 711 mmHg 34%
    03:00 +13°C° 0 mm 2 mps 711 mmHg 34%
    04:00 +13°C° 0 mm 2 mps 711 mmHg 33%
    05:00 +13°C° 0 mm 2 mps 711 mmHg 33%
    06:00 +13°C° 0 mm 2 mps 711 mmHg 31%
    07:00 +14°C° 0 mm 2 mps 711 mmHg 29%
    08:00 +15°C° 0 mm 2 mps 712 mmHg 27%
    09:00 +16°C° 0 mm 2 mps 712 mmHg 24%
    10:00 +18°C° 0 mm 2 mps 712 mmHg 21%
    11:00 +19°C° 0 mm 2 mps 711 mmHg 18%
    12:00 +20°C° 0 mm 2 mps 711 mmHg 18%
    13:00 +20°C° 0 mm 2 mps 711 mmHg 18%
    14:00 +21°C° 0 mm 2 mps 711 mmHg 18%
    15:00 +21°C° 0 mm 2 mps 711 mmHg 18%
    16:00 +21°C° 0 mm 2 mps 711 mmHg 19%
    17:00 +21°C° 0 mm 2 mps 711 mmHg 19%
    18:00 +20°C° 0 mm 2 mps 711 mmHg 21%
    19:00 +19°C° 0 mm 2 mps 712 mmHg 23%
    20:00 +18°C° 0 mm 2 mps 713 mmHg 25%
    21:00 +17°C° 0 mm 2 mps 713 mmHg 26%
    22:00 +17°C° 0 mm 2 mps 713 mmHg 26%
    23:00 +16°C° 0 mm 2 mps 713 mmHg 26%

    Day after tomorrow, 22 March, Friday

    Time Temperature Precipitation Wind Pressure Humidity
    00:00 +16°C° 0 mm 2 mps 713 mmHg 27%
    01:00 +15°C° 0 mm 2 mps 713 mmHg 27%
    02:00 +15°C° 0 mm 2 mps 713 mmHg 28%
    03:00 +14°C° 0 mm 2 mps 712 mmHg 28%
    04:00 +14°C° 0 mm 2 mps 712 mmHg 29%
    05:00 +13°C° 0 mm 2 mps 712 mmHg 29%
    06:00 +14°C° 0 mm 2 mps 712 mmHg 27%
    07:00 +15°C° 0 mm 2 mps 713 mmHg 26%
    08:00 +16°C° 0 mm 2 mps 713 mmHg 24%
    09:00 +17°C° 0 mm 2 mps 713 mmHg 21%
    10:00 +18°C° 0 mm 2 mps 713 mmHg 18%
    11:00 +20°C° 0 mm 2 mps 713 mmHg 16%
    12:00 +20°C° 0 mm 2 mps 713 mmHg 15%
    13:00 +21°C° 0 mm 2 mps 712 mmHg 15%
    14:00 +23°C° 0 mm 1 mps 712 mmHg 14%
    15:00 +23°C° 0 mm 1 mps 712 mmHg 15%
    16:00 +23°C° 0 mm 1 mps 712 mmHg 15%
    17:00 +23°C° 0 mm 1 mps 711 mmHg 16%
    18:00 +22°C° 0 mm 1 mps 712 mmHg 18%
    19:00 +21°C° 0 mm 1 mps 712 mmHg 21%
    20:00 +18°C° 0 mm 0 mps 713 mmHg 24%
    21:00 +20°C° 0 mm 1 mps 713 mmHg 25%
    22:00 +20°C° 0 mm 1 mps 713 mmHg 26%
    23:00 +20°C° 0 mm 1 mps 714 mmHg 27%

    23 March, Saturday

    Time Temperature Precipitation Wind Pressure Humidity
    00:00 +18°C° 0.2 mm 2 mps 713 mmHg 29%
    01:00 +18°C° 0.2 mm 2 mps 713 mmHg 32%
    02:00 +17°C° 0.2 mm 3 mps 713 mmHg 35%
    03:00 +16°C° 0.6 mm 2 mps 712 mmHg 40%
    04:00 +15°C° 0.6 mm 2 mps 712 mmHg 45%
    05:00 +14°C° 0.6 mm 1 mps 712 mmHg 49%
    06:00 +14°C° 0 mm 1 mps 712 mmHg 48%
    07:00 +15°C° 0 mm 2 mps 712 mmHg 46%
    08:00 +15°C° 0 mm 2 mps 712 mmHg 44%
    09:00 +16°C° 0 mm 2 mps 712 mmHg 42%
    10:00 +17°C° 0 mm 2 mps 712 mmHg 40%
    11:00 +19°C° 0 mm 1 mps 712 mmHg 39%
    12:00 +20°C° 0 mm 1 mps 712 mmHg 37%
    13:00 +20°C° 0 mm 1 mps 711 mmHg 36%
    14:00 +21°C° 0 mm 1 mps 711 mmHg 35%
    15:00 +21°C° 0 mm 1 mps 711 mmHg 34%
    16:00 +21°C° 0 mm 1 mps 711 mmHg 33%
    17:00 +21°C° 0 mm 1 mps 710 mmHg 33%
    18:00 +21°C° 0 mm 1 mps 711 mmHg 36%
    19:00 +20°C° 0 mm 1 mps 711 mmHg 40%
    20:00 +19°C° 0 mm 1 mps 712 mmHg 43%
    21:00 +18°C° 0 mm 1 mps 712 mmHg 44%
    22:00 +18°C° 0 mm 1 mps 712 mmHg 46%
    23:00 +16°C° 0 mm 1 mps 712 mmHg 47%

    24 March, Sunday

    Time Temperature Precipitation Wind Pressure Humidity
    00:00 +16°C° 0 mm 1 mps 712 mmHg 46%
    01:00 +16°C° 0 mm 1 mps 711 mmHg 46%
    02:00 +15°C° 0 mm 1 mps 711 mmHg 46%
    03:00 +15°C° 0 mm 1 mps 711 mmHg 45%
    04:00 +15°C° 0 mm 1 mps 711 mmHg 44%
    05:00 +15°C° 0 mm 1 mps 711 mmHg 43%
    06:00 +16°C° 0 mm 1 mps 711 mmHg 39%
    07:00 +18°C° 0 mm 1 mps 711 mmHg 35%
    08:00 +18°C° 0 mm 1 mps 711 mmHg 32%
    09:00 +20°C° 0 mm 1 mps 711 mmHg 28%
    10:00 +20°C° 0 mm 2 mps 711 mmHg 25%
    11:00 +21°C° 0 mm 2 mps 711 mmHg 22%
    12:00 +23°C° 0 mm 2 mps 711 mmHg 21%
    13:00 +24°C° 0 mm 2 mps 711 mmHg 20%
    14:00 +24°C° 0 mm 2 mps 710 mmHg 19%
    15:00 +24°C° 0 mm 2 mps 710 mmHg 19%
    16:00 +24°C° 0 mm 1 mps 710 mmHg 19%
    17:00 +24°C° 0 mm 1 mps 710 mmHg 19%
    18:00 +23°C° 0 mm 1 mps 710 mmHg 22%
    19:00 +22°C° 0 mm 1 mps 710 mmHg 25%
    20:00 +21°C° 0 mm 1 mps 711 mmHg 28%
    21:00 +21°C° 0 mm 1 mps 711 mmHg 28%
    22:00 +21°C° 0 mm 1 mps 711 mmHg 28%
    23:00 +21°C° 0 mm 1 mps 711 mmHg 28%

    25 March, Monday

    Time Temperature Precipitation Wind Pressure Humidity
    00:00 +21°C° 0 mm 1 mps 711 mmHg 28%
    01:00 +20°C° 0 mm 1 mps 710 mmHg 29%
    02:00 +20°C° 0 mm 1 mps 710 mmHg 29%
    03:00 +19°C° 0.1 mm 2 mps 710 mmHg 31%
    04:00 +18°C° 0.1 mm 3 mps 710 mmHg 33%
    05:00 +18°C° 0.1 mm 4 mps 710 mmHg 35%
    06:00 +18°C° 0 mm 4 mps 711 mmHg 36%
    07:00 +18°C° 0 mm 4 mps 711 mmHg 36%
    08:00 +17°C° 0 mm 4 mps 711 mmHg 36%
    09:00 +17°C° 0.1 mm 3 mps 711 mmHg 38%
    10:00 +17°C° 0.1 mm 3 mps 711 mmHg 40%
    11:00 +17°C° 0.1 mm 2 mps 712 mmHg 42%
    12:00 +17°C° 0.2 mm 2 mps 711 mmHg 43%
    13:00 +16°C° 0.2 mm 2 mps 711 mmHg 45%
    14:00 +16°C° 0.2 mm 1 mps 711 mmHg 47%
    15:00 +16°C° 0.1 mm 2 mps 711 mmHg 48%
    16:00 +16°C° 0.1 mm 2 mps 711 mmHg 49%
    17:00 +16°C° 0.1 mm 3 mps 711 mmHg 50%
    18:00 +16°C° 0.1 mm 3 mps 711 mmHg 52%
    19:00 +15°C° 0.1 mm 2 mps 711 mmHg 54%
    20:00 +15°C° 0.1 mm 2 mps 712 mmHg 56%
    21:00 +15°C° 0 mm 2 mps 712 mmHg 57%
    22:00 +15°C° 0 mm 1 mps 712 mmHg 58%
    23:00 +15°C° 0 mm 1 mps 712 mmHg 60%
    Show more